| time (UTC) | temp C | wind direction | speed KPH | gust KPH | rain 1hr cm | rain 24hr cm | rain mn cm | humidity % | barometer mb |
| 20260506123914 | 18 | 342 | 4.8 | 12.9 | 0.00 | 0.00 | 0.00 | 69 | 1008.7 |
| 20260506123412 | 18 | 253 | 3.2 | 12.9 | 0.00 | 0.00 | 0.00 | 69 | 1008.8 |
| 20260506122911 | 18 | 243 | 3.2 | 11.3 | 0.00 | 0.00 | 0.00 | 69 | 1009.0 |
| 20260506122410 | 18 | 239 | 3.2 | 11.3 | 0.00 | 0.00 | 0.00 | 70 | 1008.9 |
| 20260506121909 | 18 | 176 | 1.6 | 8.0 | 0.00 | 0.00 | 0.00 | 70 | 1008.9 |
| 20260506121410 | 18 | 243 | 3.2 | 8.0 | 0.00 | 0.00 | 0.00 | 70 | 1008.8 |
| 20260506120910 | 18 | 295 | 3.2 | 8.0 | 0.00 | 0.00 | 0.00 | 70 | 1009.0 |
| 20260506120410 | 18 | 191 | 1.6 | 6.4 | 0.00 | 0.00 | 0.00 | 70 | 1009.1 |
| 20260506115909 | 18 | 278 | 1.6 | 9.7 | 0.00 | 0.00 | 0.00 | 70 | 1009.1 |
| 20260506115409 | 18 | 333 | 1.6 | 9.7 | 0.00 | 0.00 | 0.00 | 70 | 1009.1 |
| 20260506114909 | 18 | 205 | 1.6 | 9.7 | 0.00 | 0.00 | 0.00 | 70 | 1009.2 |
| 20260506114409 | 18 | 176 | 1.6 | 9.7 | 0.00 | 0.00 | 0.00 | 71 | 1009.3 |
| 20260506113909 | 17 | 230 | 1.6 | 6.4 | 0.00 | 0.00 | 0.00 | 71 | 1009.2 |
| 20260506113635 | 18 | 338 | 1.6 | 6.4 | 0.00 | 0.00 | 0.00 | 69 | 1009.4 |
| 20260506113133 | 17 | 240 | 1.6 | 9.7 | 0.00 | 0.00 | 0.00 | 70 | 1009.4 |
| 20260506112853 | 17 | 122 | 1.6 | 9.7 | 0.00 | 0.00 | 0.00 | 70 | 1009.4 |
| 20260506111908 | 17 | 283 | 1.6 | 9.7 | 0.00 | 0.00 | 0.00 | 70 | 1009.3 |
| 20260506111408 | 17 | 240 | 1.6 | 9.7 | 0.00 | 0.00 | 0.00 | 70 | 1009.2 |
| 20260506111131 | 17 | 93 | 1.6 | 8.0 | 0.00 | 0.00 | 0.00 | 71 | 1009.2 |
| 20260506110409 | 17 | 252 | 1.6 | 8.0 | 0.00 | 0.00 | 0.00 | 71 | 1009.4 |
| 20260506105908 | 17 | 233 | 1.6 | 11.3 | 0.00 | 0.00 | 0.00 | 71 | 1009.4 |
| 20260506105410 | 17 | 262 | 1.6 | 11.3 | 0.00 | 0.00 | 0.00 | 71 | 1009.3 |
| 20260506104908 | 17 | 284 | 3.2 | 11.3 | 0.00 | 0.00 | 0.00 | 71 | 1009.3 |
| 20260506104852 | 17 | 286 | 3.2 | 11.3 | 0.00 | 0.00 | 0.00 | 71 | 1009.4 |
| 20260506104134 | 17 | 220 | 1.6 | 11.3 | 0.00 | 0.00 | 0.00 | 71 | 1009.3 |
| 20260506103406 | 17 | 264 | 1.6 | 6.4 | 0.00 | 0.00 | 0.00 | 71 | 1009.4 |
| 20260506103128 | 17 | 304 | 1.6 | 6.4 | 0.00 | 0.00 | 0.00 | 71 | 1009.2 |
| 20260506102629 | 17 | 224 | 1.6 | 6.4 | 0.00 | 0.00 | 0.00 | 71 | 1009.3 |
| 20260506101906 | 17 | 257 | 1.6 | 6.4 | 0.00 | 0.00 | 0.00 | 71 | 1009.4 |
| 20260506101407 | 17 | 295 | 1.6 | 6.4 | 0.00 | 0.00 | 0.00 | 71 | 1009.5 |
| 20260506100906 | 17 | 262 | 1.6 | 9.7 | 0.00 | 0.00 | 0.00 | 70 | 1009.4 |
| 20260506100407 | 17 | 272 | 3.2 | 9.7 | 0.00 | 0.00 | 0.00 | 70 | 1009.4 |
| 20260506095907 | 17 | 245 | 3.2 | 11.3 | 0.00 | 0.00 | 0.00 | 70 | 1009.2 |
| 20260506095407 | 17 | 309 | 3.2 | 11.3 | 0.00 | 0.00 | 0.00 | 70 | 1009.2 |
| 20260506095130 | 17 | 259 | 3.2 | 12.9 | 0.00 | 0.00 | 0.00 | 70 | 1009.3 |
| 20260506094406 | 17 | 276 | 4.8 | 14.5 | 0.00 | 0.00 | 0.00 | 70 | 1009.3 |
| 20260506093907 | 17 | 303 | 3.2 | 14.5 | 0.00 | 0.00 | 0.00 | 70 | 1009.3 |
| 20260506093404 | 17 | 214 | 3.2 | 11.3 | 0.00 | 0.00 | 0.00 | 70 | 1009.2 |
| 20260506092903 | 17 | 270 | 3.2 | 11.3 | 0.00 | 0.00 | 0.00 | 70 | 1009.2 |
| 20260506092404 | 17 | 231 | 3.2 | 11.3 | 0.00 | 0.00 | 0.00 | 70 | 1009.2 |
| 20260506091904 | 17 | 255 | 3.2 | 11.3 | 0.00 | 0.00 | 0.00 | 69 | 1009.2 |
| 20260506091404 | 17 | 291 | 3.2 | 8.0 | 0.00 | 0.00 | 0.00 | 69 | 1009.2 |
| 20260506090904 | 17 | 159 | 3.2 | 8.0 | 0.00 | 0.00 | 0.00 | 69 | 1009.2 |
| 20260506090630 | 17 | 264 | 1.6 | 8.0 | 0.00 | 0.00 | 0.00 | 69 | 1009.1 |
| 20260506085905 | 17 | 250 | 1.6 | 8.0 | 0.00 | 0.00 | 0.00 | 69 | 1009.2 |
| 20260506085405 | 17 | 284 | 1.6 | 9.7 | 0.00 | 0.00 | 0.00 | 68 | 1009.1 |
| 20260506084903 | 17 | 179 | 1.6 | 9.7 | 0.00 | 0.00 | 0.00 | 68 | 1009.1 |
| 20260506084404 | 17 | 278 | 3.2 | 9.7 | 0.00 | 0.00 | 0.00 | 68 | 1009.1 |
| 20260506083903 | 17 | 104 | 3.2 | 9.7 | 0.00 | 0.00 | 0.00 | 68 | 1009.1 |
| 20260506083628 | 17 | 286 | 3.2 | 11.3 | 0.00 | 0.00 | 0.00 | 67 | 1009.1 |
| 20260506083122 | 17 | 266 | 3.2 | 11.3 | 0.00 | 0.00 | 0.00 | 67 | 1009.1 |
| 20260506082402 | 17 | 186 | 3.2 | 12.9 | 0.00 | 0.00 | 0.00 | 67 | 1009.1 |
| 20260506082125 | 17 | 253 | 1.6 | 12.9 | 0.00 | 0.00 | 0.00 | 67 | 1009.1 |
| 20260506081402 | 17 | 300 | 1.6 | 12.9 | 0.00 | 0.00 | 0.00 | 67 | 1009.0 |
| 20260506080902 | 18 | 343 | 3.2 | 12.9 | 0.00 | 0.00 | 0.00 | 66 | 1009.1 |
| 20260506080617 | 17 | 274 | 1.6 | 9.7 | 0.00 | 0.00 | 0.00 | 66 | 1009.1 |
| 20260506080126 | 18 | 283 | 3.2 | 8.0 | 0.00 | 0.00 | 0.00 | 66 | 1009.0 |
| 20260506073400 | 18 | 276 | 1.6 | 9.7 | 0.00 | 0.00 | 0.00 | 65 | 1008.7 |
| 20260506072900 | 18 | 259 | 3.2 | 9.7 | 0.00 | 0.00 | 0.00 | 65 | 1008.7 |
| 20260506072400 | 18 | 266 | 1.6 | 9.7 | 0.00 | 0.00 | 0.00 | 65 | 1008.7 |
| 20260506071901 | 18 | 279 | 1.6 | 9.7 | 0.00 | 0.00 | 0.00 | 65 | 1008.7 |
| 20260506071400 | 18 | 262 | 1.6 | 9.7 | 0.00 | 0.00 | 0.00 | 64 | 1008.6 |
| 20260506071122 | 18 | 253 | 1.6 | 14.5 | 0.00 | 0.00 | 0.00 | 64 | 1008.6 |
| 20260506070400 | 18 | 276 | 1.6 | 14.5 | 0.00 | 0.00 | 0.00 | 64 | 1008.6 |
| 20260506070131 | 18 | 274 | 3.2 | 14.5 | 0.00 | 0.00 | 0.00 | 64 | 1008.6 |
| 20260506062359 | 18 | 243 | 1.6 | 9.7 | 0.00 | 0.00 | 0.00 | 63 | 1008.7 |
| 20260506062127 | 18 | 278 | 1.6 | 9.7 | 0.00 | 0.00 | 0.00 | 63 | 1008.6 |
| 20260506061358 | 18 | 229 | 1.6 | 6.4 | 0.00 | 0.00 | 0.00 | 63 | 1008.6 |
| 20260506060858 | 18 | 283 | 1.6 | 3.2 | 0.00 | 0.00 | 0.00 | 63 | 1008.7 |
| 20260506060359 | 18 | 255 | 0.0 | 4.8 | 0.00 | 0.00 | 0.00 | 63 | 1008.6 |
| 20260506050856 | 18 | 267 | 1.6 | 6.4 | 0.00 | 0.00 | 0.00 | 62 | 1009.2 |
| 20260506050838 | 18 | 265 | 1.6 | 11.3 | 0.00 | 0.00 | 0.00 | 61 | 1009.1 |
| 20260506044856 | 18 | 271 | 1.6 | 11.3 | 0.00 | 0.00 | 0.00 | 61 | 1009.2 |
| 20260506044356 | 18 | 278 | 1.6 | 8.0 | 0.00 | 0.00 | 0.00 | 60 | 1009.2 |
| 20260506044112 | 18 | 258 | 3.2 | 8.0 | 0.00 | 0.00 | 0.00 | 60 | 1009.2 |
| 20260506043353 | 18 | 267 | 3.2 | 8.0 | 0.00 | 0.00 | 0.00 | 60 | 1009.2 |
| 20260506042852 | 18 | 261 | 1.6 | 6.4 | 0.00 | 0.00 | 0.00 | 60 | 1009.2 |
| 20260506042352 | 19 | 251 | 1.6 | 11.3 | 0.00 | 0.00 | 0.00 | 59 | 1009.2 |
| 20260506041851 | 19 | 311 | 3.2 | 11.3 | 0.00 | 0.00 | 0.00 | 59 | 1009.2 |
| 20260506041351 | 19 | 264 | 3.2 | 12.9 | 0.00 | 0.00 | 0.00 | 59 | 1009.2 |
| 20260506041111 | 19 | 262 | 1.6 | 12.9 | 0.00 | 0.00 | 0.00 | 59 | 1009.2 |
| 20260506040349 | 19 | 239 | 1.6 | 12.9 | 0.00 | 0.00 | 0.00 | 59 | 1009.1 |
| 20260506040109 | 19 | 143 | 3.2 | 12.9 | 0.00 | 0.00 | 0.00 | 58 | 1009.1 |
| 20260506035350 | 19 | 267 | 3.2 | 12.9 | 0.00 | 0.00 | 0.00 | 58 | 1009.0 |
| 20260506034851 | 19 | 267 | 3.2 | 12.9 | 0.00 | 0.00 | 0.00 | 58 | 1009.0 |
| 20260506034351 | 19 | 260 | 3.2 | 19.3 | 0.00 | 0.00 | 0.00 | 58 | 1008.9 |
| 20260506034111 | 19 | 276 | 1.6 | 19.3 | 0.00 | 0.00 | 0.00 | 58 | 1009.0 |
| 20260506033348 | 20 | 241 | 3.2 | 19.3 | 0.00 | 0.00 | 0.00 | 58 | 1009.0 |
| 20260506032848 | 20 | 233 | 3.2 | 19.3 | 0.00 | 0.00 | 0.00 | 58 | 1009.0 |
| 20260506032605 | 20 | 203 | 3.2 | 11.3 | 0.00 | 0.00 | 0.00 | 58 | 1009.0 |
| 20260506031849 | 20 | 248 | 3.2 | 11.3 | 0.00 | 0.00 | 0.00 | 58 | 1009.0 |
| 20260506031348 | 20 | 236 | 3.2 | 11.3 | 0.00 | 0.00 | 0.00 | 58 | 1008.9 |
| 20260506031109 | 20 | 267 | 3.2 | 11.3 | 0.00 | 0.00 | 0.00 | 58 | 1008.9 |
| 20260506030350 | 20 | 271 | 3.2 | 11.3 | 0.00 | 0.00 | 0.00 | 57 | 1008.8 |
| 20260506025849 | 20 | 223 | 3.2 | 12.9 | 0.00 | 0.00 | 0.00 | 57 | 1008.8 |
| 20260506025617 | 20 | 289 | 3.2 | 12.9 | 0.00 | 0.00 | 0.00 | 57 | 1008.7 |
| 20260506024902 | 20 | 218 | 1.6 | 12.9 | 0.00 | 0.00 | 0.00 | 56 | 1008.8 |
| 20260506024349 | 20 | 257 | 3.2 | 12.9 | 0.00 | 0.00 | 0.00 | 56 | 1008.8 |
| 20260506023848 | 21 | 240 | 3.2 | 12.9 | 0.00 | 0.00 | 0.00 | 55 | 1008.8 |
| 20260506023348 | 21 | 272 | 3.2 | 12.9 | 0.00 | 0.00 | 0.00 | 55 | 1008.8 |
| 20260506022849 | 21 | 276 | 3.2 | 12.9 | 0.00 | 0.00 | 0.00 | 55 | 1008.8 |
| 20260506022346 | 21 | 261 | 3.2 | 12.9 | 0.00 | 0.00 | 0.00 | 55 | 1008.7 |
| 20260506021846 | 21 | 278 | 1.6 | 12.9 | 0.00 | 0.00 | 0.00 | 55 | 1008.9 |
| 20260506021346 | 21 | 265 | 1.6 | 8.0 | 0.00 | 0.00 | 0.00 | 54 | 1008.9 |
| 20260506021109 | 21 | 271 | 1.6 | 6.4 | 0.00 | 0.00 | 0.00 | 54 | 1008.9 |
| 20260506020344 | 21 | 280 | 1.6 | 8.0 | 0.00 | 0.00 | 0.00 | 54 | 1009.0 |
| 20260506015844 | 21 | 284 | 1.6 | 8.0 | 0.00 | 0.00 | 0.00 | 54 | 1009.0 |
| 20260506015344 | 21 | 233 | 1.6 | 6.4 | 0.00 | 0.00 | 0.00 | 54 | 1009.0 |
| 20260506014844 | 21 | 265 | 1.6 | 6.4 | 0.00 | 0.00 | 0.00 | 54 | 1009.0 |
| 20260506014344 | 21 | 259 | 1.6 | 6.4 | 0.00 | 0.00 | 0.00 | 53 | 1009.0 |
| 20260506013844 | 21 | 247 | 1.6 | 11.3 | 0.00 | 0.00 | 0.00 | 53 | 1009.1 |
| 20260506013604 | 21 | 276 | 1.6 | 11.3 | 0.00 | 0.00 | 0.00 | 53 | 1009.0 |
| 20260506012844 | 21 | 262 | 3.2 | 11.3 | 0.00 | 0.00 | 0.00 | 53 | 1008.9 |
| 20260506012345 | 21 | 249 | 3.2 | 11.3 | 0.00 | 0.00 | 0.00 | 53 | 1008.9 |
| 20260506012105 | 21 | 269 | 1.6 | 8.0 | 0.00 | 0.00 | 0.00 | 53 | 1008.7 |
| 20260506011344 | 21 | 241 | 0.0 | 4.8 | 0.00 | 0.00 | 0.00 | 53 | 1008.8 |
| 20260506010844 | 21 | 265 | 0.0 | 3.2 | 0.00 | 0.00 | 0.00 | 53 | 1008.9 |
| 20260506010603 | 21 | 266 | 1.6 | 14.5 | 0.00 | 0.00 | 0.00 | 53 | 1008.8 |
| 20260506005843 | 21 | 266 | 1.6 | 14.5 | 0.00 | 0.00 | 0.00 | 53 | 1008.5 |
| 20260506005342 | 21 | 286 | 3.2 | 14.5 | 0.00 | 0.00 | 0.00 | 52 | 1008.3 |
| 20260506004843 | 21 | 276 | 3.2 | 14.5 | 0.00 | 0.00 | 0.00 | 52 | 1007.8 |
| 20260506004343 | 22 | 235 | 3.2 | 12.9 | 0.00 | 0.00 | 0.00 | 52 | 1007.5 |
| 20260506003842 | 22 | 265 | 3.2 | 20.9 | 0.00 | 0.00 | 0.00 | 52 | 1007.5 |
| 20260506003341 | 22 | 245 | 3.2 | 20.9 | 0.00 | 0.00 | 0.00 | 52 | 1007.5 |
| 20260506003106 | 22 | 257 | 3.2 | 20.9 | 0.00 | 0.00 | 0.00 | 51 | 1007.4 |
| 20260506002601 | 22 | 266 | 4.8 | 20.9 | 0.00 | 0.00 | 0.00 | 51 | 1007.1 |
| 20260506001841 | 22 | 309 | 4.8 | 20.9 | 0.00 | 0.00 | 0.00 | 50 | 1007.0 |
| 20260506001342 | 22 | 306 | 3.2 | 20.9 | 0.00 | 0.00 | 0.00 | 51 | 1007.0 |
| 20260506000841 | 22 | 252 | 3.2 | 20.9 | 0.00 | 0.00 | 0.00 | 51 | 1006.9 |
| 20260506000340 | 22 | 124 | 3.2 | 20.9 | 0.00 | 0.00 | 0.00 | 50 | 1006.9 |
| 20260505235840 | 23 | 188 | 4.8 | 20.9 | 0.00 | 0.00 | 0.00 | 50 | 1006.7 |
| 20260505235339 | 23 | 276 | 4.8 | 14.5 | 0.00 | 0.00 | 0.00 | 50 | 1006.6 |
| 20260505234840 | 23 | 282 | 4.8 | 14.5 | 0.00 | 0.00 | 0.00 | 50 | 1006.6 |
| 20260505234600 | 23 | 168 | 4.8 | 11.3 | 0.00 | 0.00 | 0.00 | 50 | 1006.5 |
| 20260505233838 | 23 | 299 | 4.8 | 12.9 | 0.00 | 0.00 | 0.00 | 50 | 1006.6 |
| 20260505233557 | 23 | 282 | 3.2 | 12.9 | 0.00 | 0.00 | 0.00 | 50 | 1006.6 |
| 20260505232840 | 23 | 145 | 3.2 | 12.9 | 0.00 | 0.00 | 0.00 | 49 | 1006.6 |
| 20260505232340 | 23 | 222 | 4.8 | 12.9 | 0.00 | 0.00 | 0.00 | 49 | 1006.5 |
| 20260505231840 | 23 | 254 | 4.8 | 12.9 | 0.00 | 0.00 | 0.00 | 49 | 1006.3 |
| 20260505231557 | 23 | 241 | 6.4 | 16.1 | 0.00 | 0.00 | 0.00 | 49 | 1006.1 |
| 20260505230854 | 23 | 248 | 6.4 | 16.1 | 0.00 | 0.00 | 0.00 | 49 | 1006.0 |
| 20260505230340 | 23 | 276 | 4.8 | 12.9 | 0.00 | 0.00 | 0.00 | 49 | 1005.8 |
| 20260505225840 | 23 | 307 | 4.8 | 11.3 | 0.00 | 0.00 | 0.00 | 50 | 1005.7 |
| 20260505225340 | 23 | 257 | 4.8 | 19.3 | 0.00 | 0.00 | 0.00 | 50 | 1005.5 |
| 20260505224840 | 23 | 203 | 4.8 | 19.3 | 0.00 | 0.00 | 0.00 | 50 | 1005.4 |
| 20260505224337 | 23 | 160 | 6.4 | 19.3 | 0.00 | 0.00 | 0.00 | 50 | 1005.5 |
| 20260505224321 | 23 | 162 | 4.8 | 19.3 | 0.00 | 0.00 | 0.00 | 51 | 1005.3 |
| 20260505223338 | 22 | 158 | 4.8 | 19.3 | 0.00 | 0.00 | 0.00 | 51 | 1005.3 |
| 20260505222838 | 22 | 296 | 3.2 | 17.7 | 0.00 | 0.00 | 0.00 | 52 | 1005.1 |
| 20260505222337 | 22 | 277 | 3.2 | 17.7 | 0.00 | 0.00 | 0.00 | 53 | 1005.2 |
| 20260505221837 | 22 | 250 | 3.2 | 17.7 | 0.00 | 0.00 | 0.00 | 52 | 1005.1 |
| 20260505221558 | 22 | 259 | 3.2 | 9.7 | 0.00 | 0.00 | 0.00 | 52 | 1005.2 |
| 20260505220838 | 22 | 141 | 3.2 | 17.7 | 0.00 | 0.00 | 0.00 | 52 | 1005.0 |
| 20260505220337 | 22 | 273 | 4.8 | 17.7 | 0.00 | 0.00 | 0.00 | 52 | 1005.0 |
| 20260505215838 | 22 | 120 | 4.8 | 17.7 | 0.00 | 0.00 | 0.00 | 51 | 1004.9 |
| 20260505215337 | 22 | 77 | 6.4 | 17.7 | 0.00 | 0.00 | 0.00 | 51 | 1004.7 |
| 20260505214838 | 23 | 252 | 4.8 | 16.1 | 0.00 | 0.00 | 0.00 | 51 | 1004.8 |
| 20260505214335 | 22 | 225 | 4.8 | 16.1 | 0.00 | 0.00 | 0.00 | 51 | 1004.8 |
| 20260505213833 | 22 | 178 | 4.8 | 19.3 | 0.00 | 0.00 | 0.00 | 52 | 1004.7 |
| 20260505213332 | 22 | 287 | 4.8 | 19.3 | 0.00 | 0.00 | 0.00 | 52 | 1004.7 |
| 20260505212832 | 22 | 142 | 4.8 | 14.5 | 0.00 | 0.00 | 0.00 | 52 | 1004.7 |
| 20260505212332 | 22 | 174 | 4.8 | 17.7 | 0.00 | 0.00 | 0.00 | 52 | 1004.6 |
| 20260505211832 | 22 | 110 | 4.8 | 17.7 | 0.00 | 0.00 | 0.00 | 52 | 1004.6 |
| 20260505211559 | 22 | 158 | 4.8 | 17.7 | 0.00 | 0.00 | 0.00 | 52 | 1004.6 |
| 20260505210833 | 22 | 219 | 4.8 | 22.5 | 0.00 | 0.00 | 0.00 | 53 | 1004.6 |
| 20260505210550 | 22 | 278 | 4.8 | 22.5 | 0.00 | 0.00 | 0.00 | 53 | 1004.7 |
| 20260505205833 | 22 | 301 | 4.8 | 11.3 | 0.00 | 0.00 | 0.00 | 53 | 1004.6 |
| 20260505205333 | 22 | 204 | 4.8 | 14.5 | 0.00 | 0.00 | 0.00 | 53 | 1004.6 |
| 20260505204832 | 22 | 267 | 4.8 | 16.1 | 0.00 | 0.00 | 0.00 | 53 | 1004.8 |
| 20260505204331 | 22 | 134 | 4.8 | 16.1 | 0.00 | 0.00 | 0.00 | 51 | 1004.6 |
| 20260505204056 | 22 | 240 | 4.8 | 16.1 | 0.00 | 0.00 | 0.00 | 51 | 1004.5 |
| 20260505203331 | 22 | 293 | 4.8 | 16.1 | 0.00 | 0.00 | 0.00 | 51 | 1004.6 |
| 20260505202831 | 23 | 266 | 4.8 | 17.7 | 0.00 | 0.00 | 0.00 | 50 | 1004.8 |
| 20260505202331 | 23 | 181 | 4.8 | 17.7 | 0.00 | 0.00 | 0.00 | 49 | 1004.8 |
| 20260505202101 | 23 | 155 | 4.8 | 17.7 | 0.00 | 0.00 | 0.00 | 49 | 1004.6 |
| 20260505201331 | 23 | 269 | 4.8 | 17.7 | 0.00 | 0.00 | 0.00 | 48 | 1004.7 |
| 20260505200831 | 23 | 278 | 4.8 | 17.7 | 0.00 | 0.00 | 0.00 | 48 | 1004.8 |
| 20260505200332 | 24 | 165 | 6.4 | 17.7 | 0.00 | 0.00 | 0.00 | 49 | 1004.8 |
| 20260505195832 | 24 | 125 | 6.4 | 22.5 | 0.00 | 0.00 | 0.00 | 48 | 1004.7 |
| 20260505195552 | 24 | 153 | 6.4 | 22.5 | 0.00 | 0.00 | 0.00 | 48 | 1004.9 |
| 20260505194831 | 23 | 218 | 4.8 | 16.1 | 0.00 | 0.00 | 0.00 | 49 | 1004.7 |
| 20260505194331 | 23 | 245 | 4.8 | 16.1 | 0.00 | 0.00 | 0.00 | 49 | 1004.8 |
| 20260505194052 | 23 | 103 | 6.4 | 17.7 | 0.00 | 0.00 | 0.00 | 50 | 1005.0 |
| 20260505193332 | 23 | 256 | 6.4 | 19.3 | 0.00 | 0.00 | 0.00 | 51 | 1004.9 |
| 20260505192831 | 23 | 162 | 6.4 | 19.3 | 0.00 | 0.00 | 0.00 | 52 | 1005.2 |
| 20260505192555 | 23 | 208 | 6.4 | 19.3 | 0.00 | 0.00 | 0.00 | 51 | 1005.2 |
| 20260505191833 | 23 | 203 | 4.8 | 19.3 | 0.00 | 0.00 | 0.00 | 52 | 1005.5 |
| 20260505191333 | 23 | 326 | 4.8 | 22.5 | 0.00 | 0.00 | 0.00 | 53 | 1005.6 |
| 20260505190829 | 22 | 221 | 6.4 | 22.5 | 0.00 | 0.00 | 0.00 | 53 | 1005.4 |
| 20260505190330 | 22 | 152 | 4.8 | 16.1 | 0.00 | 0.00 | 0.00 | 53 | 1005.6 |
| 20260505185829 | 22 | 202 | 6.4 | 16.1 | 0.00 | 0.00 | 0.00 | 53 | 1005.8 |
| 20260505185820 | 23 | 136 | 6.4 | 16.1 | 0.00 | 0.00 | 0.00 | 52 | 1005.9 |
| 20260505184829 | 23 | 108 | 4.8 | 14.5 | 0.00 | 0.00 | 0.00 | 52 | 1006.0 |
| 20260505184329 | 23 | 85 | 6.4 | 16.1 | 0.00 | 0.00 | 0.00 | 52 | 1005.9 |
| 20260505183829 | 23 | 143 | 6.4 | 17.7 | 0.00 | 0.00 | 0.00 | 51 | 1006.1 |
| 20260505183329 | 23 | 124 | 4.8 | 17.7 | 0.00 | 0.00 | 0.00 | 49 | 1006.0 |
| 20260505182827 | 24 | 225 | 4.8 | 12.9 | 0.00 | 0.00 | 0.00 | 50 | 1006.0 |
| 20260505182327 | 24 | 79 | 4.8 | 12.9 | 0.00 | 0.00 | 0.00 | 50 | 1006.1 |
| 20260505181828 | 23 | 158 | 4.8 | 12.9 | 0.00 | 0.00 | 0.00 | 51 | 1006.2 |
| 20260505181327 | 23 | 142 | 4.8 | 11.3 | 0.00 | 0.00 | 0.00 | 50 | 1006.2 |
| 20260505180828 | 23 | 143 | 4.8 | 11.3 | 0.00 | 0.00 | 0.00 | 50 | 1006.2 |
| 20260505180327 | 23 | 214 | 6.4 | 12.9 | 0.00 | 0.00 | 0.00 | 50 | 1006.4 |
| 20260505175827 | 24 | 188 | 4.8 | 12.9 | 0.00 | 0.00 | 0.00 | 50 | 1006.4 |
| 20260505175553 | 24 | 82 | 4.8 | 12.9 | 0.00 | 0.00 | 0.00 | 50 | 1006.4 |
| 20260505174828 | 23 | 188 | 4.8 | 12.9 | 0.00 | 0.00 | 0.00 | 50 | 1006.5 |
| 20260505174327 | 23 | 176 | 4.8 | 19.3 | 0.00 | 0.00 | 0.00 | 50 | 1006.7 |
| 20260505173828 | 23 | 146 | 4.8 | 19.3 | 0.00 | 0.00 | 0.00 | 49 | 1006.6 |
| 20260505173328 | 24 | 143 | 6.4 | 19.3 | 0.00 | 0.00 | 0.00 | 49 | 1006.8 |
| 20260505172827 | 24 | 224 | 6.4 | 19.3 | 0.00 | 0.00 | 0.00 | 48 | 1006.8 |
| 20260505172809 | 25 | 252 | 4.8 | 12.9 | 0.00 | 0.00 | 0.00 | 45 | 1006.9 |
| 20260505171829 | 26 | 190 | 3.2 | 12.9 | 0.00 | 0.00 | 0.00 | 44 | 1006.9 |
| 20260505171548 | 27 | 166 | 3.2 | 14.5 | 0.00 | 0.00 | 0.00 | 44 | 1006.9 |
| 20260505170829 | 27 | 219 | 4.8 | 14.5 | 0.00 | 0.00 | 0.00 | 41 | 1007.0 |
| 20260505170328 | 27 | 283 | 4.8 | 20.9 | 0.00 | 0.00 | 0.00 | 41 | 1007.0 |
| 20260505165828 | 27 | 261 | 4.8 | 20.9 | 0.00 | 0.00 | 0.00 | 41 | 1007.1 |
| 20260505165325 | 27 | 232 | 4.8 | 20.9 | 0.00 | 0.00 | 0.00 | 40 | 1007.0 |
| 20260505164825 | 27 | 288 | 6.4 | 20.9 | 0.00 | 0.00 | 0.00 | 42 | 1007.1 |
| 20260505164325 | 27 | 260 | 6.4 | 12.9 | 0.00 | 0.00 | 0.00 | 40 | 1007.0 |
| 20260505163823 | 27 | 196 | 6.4 | 17.7 | 0.00 | 0.00 | 0.00 | 41 | 1007.1 |
| 20260505163324 | 27 | 263 | 6.4 | 17.7 | 0.00 | 0.00 | 0.00 | 41 | 1007.2 |
| 20260505162824 | 27 | 276 | 4.8 | 17.7 | 0.00 | 0.00 | 0.00 | 42 | 1007.4 |
| 20260505162541 | 27 | 254 | 4.8 | 19.3 | 0.00 | 0.00 | 0.00 | 41 | 1007.5 |
| 20260505161825 | 26 | 236 | 4.8 | 19.3 | 0.00 | 0.00 | 0.00 | 43 | 1007.7 |
| 20260505161818 | 26 | 264 | 6.4 | 19.3 | 0.00 | 0.00 | 0.00 | 43 | 1007.9 |
| 20260505160824 | 26 | 281 | 6.4 | 19.3 | 0.00 | 0.00 | 0.00 | 43 | 1008.0 |
| 20260505160323 | 26 | 42 | 4.8 | 19.3 | 0.00 | 0.00 | 0.00 | 43 | 1008.1 |
| 20260505153324 | 25 | 253 | 4.8 | 17.7 | 0.00 | 0.00 | 0.00 | 45 | 1008.4 |
| 20260505152824 | 25 | 250 | 4.8 | 17.7 | 0.00 | 0.00 | 0.00 | 46 | 1008.5 |
| 20260505152325 | 25 | 275 | 6.4 | 17.7 | 0.00 | 0.00 | 0.00 | 46 | 1008.6 |
| 20260505151825 | 24 | 279 | 4.8 | 17.7 | 0.00 | 0.00 | 0.00 | 47 | 1008.6 |
| 20260505151324 | 24 | 281 | 4.8 | 14.5 | 0.00 | 0.00 | 0.00 | 46 | 1008.6 |
| 20260505150824 | 24 | 169 | 3.2 | 12.9 | 0.00 | 0.00 | 0.00 | 46 | 1008.7 |
| 20260505150539 | 24 | 276 | 3.2 | 16.1 | 0.00 | 0.00 | 0.00 | 47 | 1008.8 |
| 20260505140319 | 22 | 282 | 4.8 | 12.9 | 0.00 | 0.00 | 0.00 | 51 | 1009.0 |
| 20260505124815 | 19 | 256 | 3.2 | 12.9 | 0.00 | 0.00 | 0.00 | 57 | 1009.2 |